Date String (YYYY-MM-DD hh:mm:ss) UTC,Instrument flags,Ambient pressure (hPa),Sample flow (lpm),Bypass flow (lpm),Sample temperature (°C),Ambient temperature (°C),ASC tube jacket temperature (°C),LED temperature (°C),Box temperature (°C),Sample RH (%),Span deviation,Mass concentration (μg/m³),Mass concentration (μg/m³),Mass concentration (μg/m³)
DateTimeUTC,F1_M11,P_M11,Q1_M11,Q2_M11,T1_M11,T2_M11,T3_M11,T4_M11,T5_M11,U1_M11,ZSPAN_M11,X0_M11,X2_M11,X1_M11
2021-11-10 08:00:00,,0821.0,5.00,0.00,26.9,25.9,00.0,36.0,28.6,13.7,0000.3,0017.51,0007.56,0006.59
2021-11-10 08:01:00,,0821.0,4.99,0.00,26.9,25.9,00.0,36.0,28.5,13.7,-000.1,0016.13,0006.69,0005.86
2021-11-10 08:02:00,,0821.0,4.99,0.00,26.9,25.9,00.0,36.0,28.5,13.7,0000.1,0013.70,0005.65,0004.98
2021-11-10 08:03:00,,0821.0,4.99,0.00,26.8,25.8,00.0,35.9,28.5,13.7,-000.4,0010.86,0004.51,0003.98
2021-11-10 08:04:00,,0821.0,5.01,0.00,26.8,25.8,00.0,35.9,28.4,13.8,0000.0,0008.79,0003.39,0002.79
2021-11-10 08:05:00,,0821.0,5.00,0.00,26.8,25.8,00.0,35.9,28.4,13.8,0000.0,0005.89,0002.45,0001.80
2021-11-10 08:06:00,,0821.0,4.99,0.00,26.8,25.7,00.0,35.9,28.4,13.8,0000.0,0004.02,0001.58,0001.13
2021-11-10 08:07:00,,0821.1,5.01,0.00,26.7,25.7,00.0,35.9,28.3,13.8,0000.0,0002.74,0000.85,0000.57
2021-11-10 08:08:00,,0821.1,4.99,0.00,26.7,25.7,00.0,35.9,28.3,13.8,0000.0,0001.89,0000.56,0000.32
2021-11-10 08:09:00,,0821.1,5.00,0.00,26.7,25.7,00.0,35.9,28.3,13.7,0000.0,0001.57,0000.34,0000.17
2021-11-10 08:10:00,,0821.0,5.00,0.00,26.7,25.7,00.0,35.9,28.3,13.7,0000.0,0001.35,0000.29,0000.15
2021-11-10 08:11:00,,0821.0,4.99,0.00,26.7,25.7,00.0,35.9,28.2,13.8,0000.0,0001.32,0000.29,0000.15
2021-11-10 08:12:00,,0821.0,5.00,0.00,26.7,25.6,00.0,35.8,28.3,13.8,0000.0,0001.21,0000.30,0000.15
2021-11-10 08:13:00,,0821.0,5.00,0.00,26.7,25.7,00.0,35.8,28.3,13.8,0000.0,0001.21,0000.29,0000.15
2021-11-10 08:14:00,,0821.0,5.00,0.00,26.7,25.6,00.0,35.8,28.3,13.8,0000.0,0001.09,0000.28,0000.15
2021-11-10 08:15:00,,0820.9,5.00,0.00,26.6,25.6,00.0,35.8,28.3,13.8,0000.0,0000.48,0000.27,0000.15
2021-11-10 08:16:00,,0821.0,5.00,0.00,26.6,25.6,00.0,35.8,28.3,13.9,0000.0,0000.47,0000.26,0000.14
2021-11-10 08:17:00,,0821.0,4.99,0.00,26.6,25.5,00.0,35.8,28.2,13.8,0000.0,0000.56,0000.28,0000.14
2021-11-10 08:18:00,,0821.0,5.00,0.00,26.6,25.5,00.0,35.8,28.2,13.9,0000.0,0000.54,0000.26,0000.13
2021-11-10 08:19:00,,0821.0,5.01,0.00,26.6,25.5,00.0,35.8,28.2,13.9,0000.0,0000.51,0000.23,0000.12
2021-11-10 08:20:00,,0821.0,5.01,0.00,26.6,25.5,00.0,35.8,28.2,14.0,0000.0,0001.25,0000.23,0000.12
2021-11-10 08:21:00,,0821.0,5.01,0.00,26.6,25.5,00.0,35.7,28.2,13.9,0000.0,0001.33,0000.24,0000.12
2021-11-10 08:22:00,,0821.0,4.99,0.00,26.6,25.5,00.0,35.7,28.2,13.9,0000.0,0001.30,0000.21,0000.12
2021-11-10 08:23:00,,0821.1,5.00,0.00,26.6,25.5,00.0,35.7,28.2,14.0,0000.0,0001.35,0000.23,0000.12
2021-11-10 08:24:00,,0821.0,5.01,0.00,26.6,25.4,00.0,35.7,28.2,14.0,0000.0,0001.34,0000.22,0000.12
2021-11-10 08:25:00,,0821.0,5.00,0.00,26.6,25.5,00.0,35.7,28.2,14.0,0000.0,0001.35,0000.22,0000.11
2021-11-10 08:26:00,,0821.1,5.00,0.00,26.6,25.5,00.0,35.7,28.2,14.0,0000.0,0001.47,0000.27,0000.12
2021-11-10 08:27:00,,0821.0,5.00,0.00,26.6,25.5,00.0,35.7,28.2,14.0,0000.0,0001.56,0000.30,0000.12
2021-11-10 08:28:00,,0821.0,5.00,0.00,26.6,25.5,00.0,35.7,28.2,14.0,0000.0,0001.51,0000.30,0000.13
2021-11-10 08:29:00,,0821.0,5.01,0.00,26.6,25.5,00.0,35.7,28.3,14.0,0000.0,0001.46,0000.30,0000.13
2021-11-10 08:30:00,,0821.0,5.00,0.00,26.6,25.5,00.0,35.7,28.3,14.0,0000.0,0001.49,0000.31,0000.14
2021-11-10 08:31:00,,0821.0,4.98,0.00,26.6,25.5,00.0,35.7,28.3,14.0,0000.0,0000.83,0000.33,0000.14
2021-11-10 08:32:00,,0821.0,5.01,0.00,26.6,25.5,00.0,35.7,28.3,14.0,0000.0,0000.67,0000.31,0000.14
2021-11-10 08:33:00,,0821.0,4.99,0.00,26.6,25.5,00.0,35.7,28.3,14.0,0000.0,0000.62,0000.30,0000.14
2021-11-10 08:34:00,,0821.0,4.99,0.00,26.6,25.5,00.0,35.7,28.3,14.0,0000.0,0000.58,0000.28,0000.14
2021-11-10 08:35:00,,0821.0,4.99,0.00,26.6,25.6,00.0,35.7,28.3,14.0,0000.0,0000.58,0000.29,0000.14
2021-11-10 08:36:00,,0821.0,5.01,0.00,26.6,25.5,00.0,35.7,28.3,14.0,0000.0,0000.61,0000.30,0000.15
2021-11-10 08:37:00,,0821.0,4.99,0.00,26.6,25.6,00.0,35.7,28.3,13.9,0000.0,0000.56,0000.29,0000.15
2021-11-10 08:38:00,,0821.1,5.01,0.00,26.6,25.6,00.0,35.7,28.3,13.9,0000.0,0000.54,0000.29,0000.15
2021-11-10 08:39:00,,0821.1,5.00,0.00,26.6,25.6,00.0,35.7,28.4,13.8,0000.0,0000.50,0000.27,0000.14
2021-11-10 08:40:00,,0821.0,4.99,0.00,26.6,25.5,00.0,35.7,28.3,13.8,0000.0,0000.51,0000.27,0000.13
2021-11-10 08:41:00,,0821.1,5.01,0.00,26.6,25.5,00.0,35.7,28.3,13.7,0000.0,0000.54,0000.29,0000.13
2021-11-10 08:42:00,,0821.1,5.00,0.00,26.6,25.5,00.0,35.7,28.3,13.9,0000.0,0000.49,0000.26,0000.12
2021-11-10 08:43:00,,0821.1,5.00,0.00,26.6,25.5,00.0,35.7,28.4,14.1,0000.0,0000.41,0000.23,0000.12
2021-11-10 08:44:00,,0821.1,4.99,0.00,26.6,25.6,00.0,35.7,28.4,14.2,0000.0,0000.43,0000.24,0000.12
2021-11-10 08:45:00,,0821.0,5.02,0.00,26.6,25.6,00.0,35.7,28.3,14.3,0000.0,0000.42,0000.23,0000.11
2021-11-10 08:46:00,,0821.1,5.00,0.00,26.5,25.5,00.0,35.7,28.3,14.4,0000.0,0000.45,0000.24,0000.11
2021-11-10 08:47:00,,0821.0,4.99,0.00,26.5,25.5,00.0,35.7,28.2,14.6,0000.0,0000.43,0000.23,0000.10
2021-11-10 08:48:00,,0821.0,5.01,0.00,26.5,25.5,00.0,35.7,28.2,14.4,0000.0,0000.37,0000.20,0000.10
2021-11-10 08:49:00,,0821.0,5.01,0.00,26.5,25.5,00.0,35.6,28.2,14.6,0000.0,0000.47,0000.20,0000.10
2021-11-10 08:50:00,,0821.0,5.00,0.00,26.4,25.4,00.0,35.6,28.1,14.5,0000.0,0000.62,0000.21,0000.09
2021-11-10 08:51:00,,0821.0,4.99,0.00,26.4,25.4,00.0,35.6,28.1,14.3,0000.0,0000.60,0000.21,0000.09
2021-11-10 08:52:00,,0821.0,5.01,0.00,26.4,25.4,00.0,35.6,28.1,14.5,0000.0,0000.55,0000.18,0000.09
2021-11-10 08:53:00,,0820.9,4.99,0.00,26.4,25.4,00.0,35.6,28.0,14.1,0000.0,0000.55,0000.19,0000.09
2021-11-10 08:54:00,,0821.0,5.00,0.00,26.4,25.4,00.0,35.6,28.0,13.9,0000.0,0000.57,0000.19,0000.10
2021-11-10 08:55:00,,0820.9,5.00,0.00,26.4,25.4,00.0,35.6,28.0,13.9,0000.0,0000.59,0000.20,0000.10
2021-11-10 08:56:00,,0820.9,5.00,0.00,26.4,25.4,00.0,35.5,28.0,13.8,0000.0,0000.63,0000.22,0000.10
2021-11-10 08:57:00,,0820.9,4.99,0.00,26.4,25.3,00.0,35.5,28.0,13.9,0000.0,0000.68,0000.25,0000.10
2021-11-10 08:58:00,,0820.9,5.00,0.00,26.4,25.4,00.0,35.5,28.0,13.9,0000.0,0001.72,0000.27,0000.10
2021-11-10 08:59:00,,0820.9,5.00,0.00,26.4,25.4,00.0,35.5,28.0,13.9,0000.0,0001.77,0000.28,0000.10
